Wind_Speed
8 4 12 14 23 30 31 37 39 38 32 29 31 33 31 31 27 22 16 14 10 5 3 6 10 15 24 23 27 26 25 24 23 23 26 30 30 26 25 21 22 22 26 30 28 26 27 24 21
4 11 12 16 24 29 32 32 33 37 35 35 35 34 34 31 27 23 20 18 13 11 10 5 6 11 20 22 24 28 28 27 28 25 25 28 29 27 25 25 24 25 23 17 17 15 10 7 8
3 5 9 16 22 25 28 36 38 36 36 36 35 34 36 31 27 24 23 18 15 12 12 11 8 6 12 19 21 21 29 32 34 32 37 34 31 34 30 29 29 30 26 20 18 19 17 13 8
1 5 4 8 15 17 22 27 39 33 37 38 37 33 37 33 30 27 24 20 15 15 15 14 11 9 9 12 19 23 26 29 34 36 38 38 35 31 31 30 28 25 23 23 23 16 19 12 11
7 5 1 7 10 14 15 27 32 37 35 36 38 38 34 33 31 28 28 22 17 12 9 9 10 9 8 9 10 12 15 21 26 29 31 31 29 28 27 26 24 21 20 21 19 14 8 10 11
9 5 4 3 11 9 15 24 29 32 34 35 37 38 33 32 32 31 27 24 19 18 12 8 7 8 8 9 8 9 10 10 11 12 15 18 21 23 21 19 16 15 15 17 17 18 12 15 15
11 8 4 0 9 6 11 20 23 26 30 31 34 35 34 33 32 31 29 26 23 19 15 11 9 7 6 7 8 6 6 7 8 9 10 10 10 11 12 12 13 12 13 13 12 14 12 14 17
16 13 9 3 4 3 10 16 21 22 23 29 31 34 34 32 32 34 30 27 25 20 16 13 10 8 9 8 6 5 5 5 7 8 10 8 9 8 11 12 12 9 10 11 8 9 9 7 7
20 17 8 6 9 7 12 14 15 17 22 27 28 32 33 33 34 34 32 30 28 24 17 16 14 15 14 14 8 6 5 6 7 8 7 6 4 3 4 5 4 9 10 9 6 4 3 6 11
22 18 11 6 9 13 12 12 14 14 22 24 27 26 31 33 37 38 37 33 30 28 23 15 12 15 16 12 10 7 8 10 8 7 9 8 9 12 15 18 14 17 13 9 5 6 2 3 5
26 21 16 6 9 12 13 12 10 13 20 21 23 22 26 31 37 39 39 33 31 30 30 19 16 13 10 13 11 10 14 12 13 14 13 19 22 23 25 26 20 16 13 13 10 7 6 5 6
31 26 22 13 10 12 11 11 11 14 15 19 20 22 20 25 31 39 40 35 32 30 29 27 19 17 15 17 22 24 22 23 24 23 22 26 25 24 22 21 18 18 16 13 9 6 7 9 12
36 32 26 20 14 9 9 13 10 10 12 16 17 21 20 21 24 32 36 35 35 33 30 27 23 24 23 24 30 30 28 23 21 25 25 26 22 19 18 13 12 17 15 12 13 13 10 16 17
39 36 33 26 24 12 13 9 9 7 7 11 15 18 20 20 22 27 30 32 35 33 32 29 24 25 25 27 26 28 28 27 24 23 22 23 23 20 20 18 16 14 15 17 18 17 18 20 19
44 41 38 32 25 24 21 17 12 9 4 6 14 17 18 18 25 28 28 33 35 33 35 33 29 24 25 28 25 26 27 23 27 27 27 25 21 19 20 22 23 20 20 20 22 24 22 23 25
48 45 40 35 33 30 24 22 17 9 3 4 12 15 15 16 20 26 30 31 32 36 35 36 32 28 24 27 24 24 25 25 26 25 27 26 24 26 26 25 25 27 27 28 32 32 31 29 27
53 48 45 42 34 36 27 23 20 13 7 4 4 12 10 16 14 22 23 26 31 33 38 36 35 30 30 28 25 18 21 20 21 22 26 26 26 31 34 34 35 36 34 39 37 35 34 39 42
58 53 48 43 38 38 33 27 22 21 13 8 3 8 7 10 12 18 21 21 26 32 36 35 36 37 36 32 30 28 22 23 24 25 24 26 25 27 32 39 34 36 40 37 36 40 44 42 42
62 57 51 48 44 42 37 31 25 24 19 12 6 2 9 11 12 16 22 23 26 27 32 36 36 38 41 38 36 30 28 25 24 27 27 27 32 34 40 37 35 34 37 40 41 36 34 34 35
67 63 57 51 49 46 42 35 28 27 22 17 11 5 8 12 14 15 15 22 25 26 29 30 35 37 38 42 43 39 32 30 29 32 33 36 37 40 37 37 34 31 28 31 29 29 29 27 26
74 67 61 56 53 49 45 41 34 30 27 21 15 11 6 8 8 13 14 16 22 23 26 28 31 34 39 40 42 44 41 38 39 36 34 35 37 36 34 29 22 21 22 23 24 21 21 23 23
77 73 68 62 59 55 48 45 40 33 31 24 20 15 11 5 8 12 15 18 18 21 20 24 28 31 35 38 40 44 45 44 45 41 35 30 27 24 22 21 22 22 23 19 12 13 14 17 20
79 77 72 67 63 58 53 47 44 37 33 28 24 20 15 10 11 12 13 15 17 21 18 20 21 27 29 33 36 39 42 42 43 45 41 34 29 23 19 19 18 16 13 10 12 12 14 13 14
76 78 77 71 68 61 57 50 50 43 38 33 25 23 20 13 14 13 9 15 16 17 20 20 18 21 24 25 27 30 31 36 37 38 40 38 38 35 32 31 24 22 21 20 18 16 15 17 21
77 78 79 73 72 66 61 57 51 50 45 38 32 27 23 20 15 15 13 13 13 11 13 16 17 19 21 21 22 22 25 27 30 32 33 33 32 32 33 35 33 29 29 28 28 27 25 25 26
80 78 80 77 75 72 64 61 56 52 48 43 34 33 28 26 21 18 17 16 13 10 9 11 14 15 16 17 19 20 21 22 22 22 24 26 27 29 30 31 30 28 32 31 33 32 32 29 28
83 78 82 80 80 75 68 63 60 55 52 46 41 36 36 36 31 26 24 21 16 11 9 7 6 11 13 11 12 15 17 17 15 16 16 17 19 22 22 22 24 25 27 28 30 32 34 36 33
86 81 81 81 81 79 71 69 66 64 61 53 49 45 44 39 34 31 27 25 22 12 11 10 7 2 3 2 4 6 6 7 13 13 14 13 12 13 15 15 17 18 21 23 23 26 27 28 29
86 82 77 80 79 82 76 73 68 66 63 60 55 51 48 43 39 36 32 30 23 18 16 15 9 8 4 5 5 7 7 4 2 8 10 7 10 12 11 12 14 12 12 13 14 16 18 21 22
87 84 78 82 85 85 78 74 71 67 65 63 59 56 53 48 47 42 41 35 29 26 18 22 14 12 9 7 8 9 11 9 6 8 6 2 1 3 5 9 8 10 10 10 12 12 13 14 17
Wind_Direction
54 64 322 357 2 0 11 7 20 29 21 24 28 23 14 14 19 29 44 60 69 96 113 182 205 209 208 213 208 214 218 218 222 228 218 217 222 244 259 257 254 268 282 290 292 292 295 293 283
15 43 18 1 1 356 8 5 22 29 22 26 28 25 17 18 23 29 44 50 55 81 82 113 180 201 208 222 219 225 213 226 227 224 232 232 239 255 252 252 263 272 277 270 272 285 269 271 284
60 49 354 2 360 11 4 18 24 25 23 27 30 30 21 19 25 31 37 44 45 78 89 86 109 161 207 215 219 218 223 230 230 235 238 246 253 259 261 263 265 264 267 258 263 280 276 269 258
181 40 33 3 341 357 352 12 20 26 27 28 30 32 27 22 26 33 35 37 49 74 80 85 90 111 148 197 216 225 226 223 227 233 239 246 252 248 252 253 258 257 254 261 275 254 269 244 252
212 228 343 16 355 29 354 8 14 20 23 24 29 31 30 27 28 34 35 34 44 64 69 76 73 89 112 140 166 188 209 225 233 237 236 235 233 235 239 240 248 251 255 255 251 237 242 219 256
217 223 165 92 6 354 11 6 8 4 16 22 27 30 38 32 34 36 35 37 44 44 52 57 81 97 106 125 141 164 175 184 193 201 209 214 219 225 236 241 239 241 246 239 234 218 246 251 246
220 198 166 325 338 345 328 353 7 1 12 25 30 31 39 37 39 41 39 40 44 46 50 65 79 94 108 122 141 146 165 173 192 205 208 206 212 218 225 230 229 232 213 189 219 234 231 236 249
204 204 187 173 40 169 285 354 360 1 17 24 33 37 34 42 44 47 44 42 44 49 54 58 69 94 96 96 111 139 153 180 190 192 193 200 209 224 233 239 246 235 197 192 192 201 232 266 297
202 210 186 192 213 231 299 342 5 17 26 26 34 46 46 47 50 47 43 41 38 43 58 64 73 88 92 86 85 93 148 172 185 188 192 203 188 194 204 201 188 147 143 145 146 150 206 250 262
216 215 213 221 213 231 261 319 350 22 30 27 32 49 52 50 52 48 44 44 41 44 54 65 81 94 85 63 57 89 130 148 150 146 146 142 121 125 122 126 114 119 130 131 125 180 241 303 329
215 215 217 189 213 228 259 280 343 3 24 26 30 37 52 56 51 49 46 47 46 45 50 60 66 84 62 48 49 89 117 118 119 125 132 124 120 110 110 113 130 134 136 144 120 130 120 65 38
214 215 211 194 212 225 254 271 307 354 11 24 29 31 48 49 53 52 45 48 50 51 51 54 73 63 67 53 87 101 96 106 108 113 117 114 110 113 106 106 104 117 126 134 130 101 91 82 62
215 213 195 199 205 216 224 262 301 338 356 17 33 28 39 47 48 46 48 48 49 54 55 56 66 71 66 81 95 85 96 95 89 99 105 110 112 110 112 110 108 132 133 126 106 90 76 75 67
216 218 206 213 217 208 229 219 233 296 334 7 35 34 33 45 43 44 48 46 49 53 58 58 66 67 63 82 88 94 84 83 90 100 103 106 95 95 101 101 103 108 106 97 89 85 83 82 80
215 217 216 216 202 207 198 208 220 267 29 12 39 41 33 48 55 56 60 54 49 53 58 58 63 73 68 76 86 84 82 78 85 87 88 91 94 93 97 103 102 98 90 90 91 82 78 85 84
213 216 215 212 210 211 216 226 221 242 141 86 44 45 31 48 61 60 59 57 54 54 60 62 65 70 75 76 89 85 83 79 83 86 89 90 94 95 90 92 91 91 87 84 81 83 88 86 87
210 215 214 215 213 214 214 221 221 225 206 124 53 53 32 39 60 66 61 54 53 53 61 62 68 69 76 78 83 84 78 71 83 85 95 89 92 91 86 94 95 97 94 94 94 93 95 86 82
211 214 213 213 217 215 214 222 218 213 223 194 180 65 60 40 60 71 69 58 59 57 58 64 67 72 73 78 82 80 86 79 77 88 95 92 96 94 91 99 93 94 97 97 92 91 87 86 84
210 212 211 211 210 214 214 217 216 219 222 200 203 81 93 73 78 78 74 76 66 64 60 61 68 75 76 78 81 81 84 91 82 91 94 98 97 94 106 102 100 100 100 100 98 97 92 91 93
208 210 209 207 208 213 213 215 214 218 215 197 208 206 119 95 74 71 81 80 72 68 65 63 66 71 78 77 78 81 85 90 92 95 98 102 102 108 114 109 108 102 99 106 105 105 102 94 92
207 208 208 208 209 210 213 211 214 215 217 203 206 203 184 156 86 67 73 85 80 75 74 70 71 69 77 77 79 81 82 83 85 84 91 97 109 116 118 112 108 103 109 111 114 108 100 90 90
208 206 206 206 209 208 211 211 213 208 216 209 203 203 205 164 151 82 77 74 84 82 74 78 78 76 74 79 78 79 84 84 80 79 80 88 106 118 109 111 107 117 121 125 107 101 84 80 80
208 206 206 206 208 207 208 210 210 203 219 212 205 194 199 208 156 121 90 80 82 85 88 87 81 87 82 79 75 80 81 84 85 81 79 84 89 91 88 84 83 102 113 106 74 85 79 62 69
207 205 205 206 209 207 207 209 208 204 216 214 206 194 197 197 161 158 121 89 82 90 87 85 89 91 94 87 81 78 78 84 85 84 82 83 83 84 83 78 79 79 80 76 72 82 72 72 75
206 202 203 204 208 206 204 211 211 207 212 213 210 198 197 201 224 175 148 120 93 88 96 88 91 96 91 89 88 81 79 87 92 89 85 85 86 83 83 81 76 71 74 75 72 67 64 62 62
204 201 200 202 207 208 203 206 208 204 210 215 208 201 203 206 193 198 179 147 125 105 94 99 100 97 88 86 87 86 88 88 86 84 79 79 88 85 82 79 75 74 76 77 67 68 71 74 69
199 199 198 201 206 206 204 205 207 205 209 210 212 208 201 207 206 218 189 172 155 135 126 110 96 98 92 95 77 81 86 92 80 74 63 67 79 73 73 75 75 74 76 75 68 65 64 64 64
198 198 197 201 205 203 202 206 208 211 215 213 213 215 218 218 211 213 199 181 176 187 177 165 147 104 65 14 6 20 39 73 65 47 56 67 83 83 69 67 69 77 76 73 69 65 61 61 61
199 198 198 199 204 201 202 206 207 212 214 214 214 218 223 216 213 207 213 192 192 190 193 191 204 218 251 295 298 306 306 350 72 27 27 44 70 84 88 89 74 70 74 69 68 67 66 64 60
199 198 195 202 203 203 203 206 207 210 213 214 215 215 220 216 207 211 215 213 208 210 204 204 211 224 233 252 293 297 292 268 255 299 350 79 110 123 84 95 89 82 82 64 61 65 61 56 53
Height
10980 10979 10976 10976 10973 10969 10966 10961 10953 10946 10944 10941 10935 10927 10921 10916 10912 10908 10904 10901 10900 10900 10899 10900 10902 10905 10906 10910 10914 10917 10920 10924 10928 10931 10934 10938 10940 10944 10947 10949 10950 10953 10953 10953 10951 10950 10950 10951 10949
10980 10979 10978 10977 10974 10970 10967 10962 10956 10950 10947 10943 10936 10929 10923 10918 10913 10910 10905 10904 10903 10901 10901 10901 10902 10903 10907 10909 10912 10916 10919 10921 10925 10929 10931 10934 10936 10939 10942 10944 10947 10950 10950 10950 10949 10948 10948 10949 10948
10982 10980 10978 10976 10975 10972 10969 10964 10958 10954 10951 10946 10939 10932 10925 10920 10916 10912 10907 10905 10904 10902 10902 10903 10903 10904 10906 10909 10911 10914 10916 10919 10922 10925 10928 10930 10932 10934 10937 10940 10943 10946 10947 10948 10948 10946 10945 10945 10946
10983 10982 10980 10978 10976 10974 10971 10966 10962 10960 10956 10949 10942 10935 10929 10924 10919 10914 10910 10907 10907 10905 10904 10905 10905 10905 10906 10907 10909 10912 10913 10915 10918 10921 10922 10926 10929 10931 10933 10937 10938 10940 10942 10943 10945 10942 10943 10944 10943
10983 10982 10982 10979 10978 10976 10972 10968 10966 10964 10959 10953 10945 10939 10934 10929 10923 10918 10914 10911 10909 10907 10906 10906 10907 10906 10906 10907 10908 10908 10909 10910 10912 10915 10917 10920 10925 10927 10929 10931 10933 10935 10936 10937 10940 10940 10940 10941 10942
10982 10983 10983 10982 10981 10977 10976 10974 10970 10966 10963 10956 10949 10945 10940 10934 10929 10921 10916 10914 10911 10909 10907 10906 10906 10906 10907 10907 10907 10907 10908 10908 10910 10911 10913 10917 10919 10921 10924 10926 10929 10931 10933 10934 10936 10939 10940 10940 10941
10981 10983 10983 10982 10981 10981 10978 10979 10975 10972 10969 10963 10957 10951 10945 10939 10933 10925 10920 10918 10914 10911 10909 10908 10908 10907 10908 10907 10907 10906 10906 10907 10908 10910 10912 10915 10917 10919 10921 10924 10926 10928 10930 10932 10934 10937 10939 10940 10940
10982 10983 10984 10983 10982 10981 10982 10982 10981 10978 10974 10969 10962 10955 10949 10944 10937 10929 10925 10921 10917 10913 10912 10910 10909 10908 10908 10906 10907 10906 10906 10906 10907 10909 10911 10914 10916 10918 10920 10922 10923 10925 10928 10931 10934 10936 10938 10939 10939
10980 10982 10983 10983 10982 10981 10981 10984 10982 10980 10977 10971 10965 10961 10955 10949 10942 10935 10930 10925 10921 10918 10915 10913 10912 10910 10909 10907 10907 10907 10906 10906 10906 10907 10910 10913 10914 10916 10917 10917 10920 10925 10928 10931 10934 10936 10937 10938 10937
10979 10981 10981 10982 10983 10982 10982 10983 10983 10982 10979 10973 10969 10966 10959 10954 10947 10941 10936 10930 10926 10922 10918 10916 10914 10913 10912 10910 10908 10906 10906 10904 10906 10909 10911 10913 10914 10915 10917 10918 10921 10925 10929 10932 10933 10934 10935 10935 10936
10975 10979 10981 10981 10982 10981 10982 10984 10985 10982 10981 10977 10973 10968 10964 10960 10954 10948 10942 10936 10931 10926 10921 10918 10917 10916 10914 10911 10907 10905 10906 10907 10908 10908 10911 10914 10916 10918 10919 10921 10924 10927 10930 10932 10934 10934 10936 10936 10935
10971 10975 10979 10980 10980 10982 10982 10985 10985 10982 10982 10980 10976 10972 10969 10965 10961 10955 10948 10941 10935 10930 10925 10921 10920 10918 10916 10913 10909 10909 10910 10911 10911 10912 10914 10917 10918 10920 10923 10926 10928 10928 10930 10932 10934 10935 10936 10937 10937
10965 10971 10974 10976 10978 10981 10984 10983 10983 10983 10984 10982 10979 10975 10972 10968 10964 10960 10954 10949 10942 10935 10930 10925 10923 10921 10919 10917 10915 10915 10916 10917 10918 10918 10919 10921 10923 10925 10926 10928 10929 10930 10931 10933 10936 10938 10939 10939 10940
10961 10966 10971 10974 10977 10981 10983 10984 10984 10984 10985 10983 10981 10977 10974 10972 10968 10965 10962 10956 10949 10942 10935 10930 10928 10926 10926 10922 10921 10922 10923 10924 10924 10923 10923 10924 10926 10927 10929 10931 10932 10934 10935 10938 10938 10939 10940 10941 10942
10954 10959 10965 10970 10974 10979 10982 10982 10983 10985 10986 10984 10982 10980 10979 10978 10974 10970 10966 10961 10956 10949 10941 10936 10933 10932 10932 10927 10928 10928 10928 10930 10929 10928 10928 10929 10930 10931 10933 10935 10936 10938 10940 10942 10943 10942 10944 10944 10944
10946 10953 10960 10965 10970 10975 10979 10981 10983 10985 10988 10986 10985 10983 10982 10981 10978 10974 10971 10967 10963 10956 10949 10943 10939 10938 10936 10933 10933 10934 10935 10935 10934 10934 10934 10933 10935 10936 10937 10939 10941 10944 10944 10946 10946 10948 10948 10947 10947
10937 10945 10953 10959 10964 10969 10975 10978 10981 10985 10987 10988 10987 10986 10984 10983 10980 10979 10977 10974 10969 10962 10957 10952 10947 10945 10942 10940 10938 10938 10939 10940 10939 10938 10938 10937 10940 10941 10942 10943 10945 10948 10949 10951 10951 10952 10953 10952 10950
10930 10938 10947 10954 10960 10965 10970 10974 10979 10983 10986 10987 10988 10988 10987 10985 10983 10983 10981 10979 10975 10969 10965 10960 10956 10952 10948 10946 10944 10944 10943 10946 10945 10942 10943 10944 10946 10948 10949 10950 10951 10954 10957 10957 10958 10957 10957 10957 10955
10920 10929 10938 10946 10955 10959 10964 10971 10975 10980 10983 10986 10987 10989 10989 10986 10986 10985 10985 10983 10980 10975 10970 10969 10964 10958 10956 10954 10952 10949 10948 10950 10950 10948 10948 10950 10953 10954 10955 10955 10958 10960 10961 10963 10962 10962 10962 10961 10960
10908 10916 10927 10937 10946 10954 10961 10967 10972 10976 10980 10985 10986 10988 10990 10989 10988 10987 10988 10986 10984 10981 10977 10976 10972 10966 10963 10962 10959 10957 10957 10956 10956 10955 10956 10957 10960 10960 10963 10963 10965 10968 10968 10967 10969 10968 10967 10965 10965
10894 10906 10918 10927 10937 10947 10955 10961 10968 10972 10977 10982 10985 10986 10990 10991 10990 10990 10989 10989 10987 10986 10984 10982 10980 10975 10971 10970 10968 10966 10964 10963 10962 10963 10964 10966 10968 10968 10969 10969 10970 10973 10973 10973 10974 10974 10972 10971 10970
10883 10893 10905 10916 10926 10937 10947 10955 10963 10968 10972 10978 10982 10985 10988 10990 10992 10992 10991 10992 10991 10990 10989 10988 10986 10983 10980 10977 10978 10975 10972 10971 10971 10970 10971 10973 10974 10973 10972 10974 10975 10976 10977 10978 10978 10976 10976 10976 10975
10870 10883 10895 10906 10915 10928 10939 10949 10957 10963 10967 10972 10979 10982 10986 10990 10992 10994 10993 10993 10993 10994 10994 10994 10992 10990 10988 10986 10986 10984 10982 10981 10979 10978 10979 10981 10980 10979 10979 10979 10980 10981 10981 10981 10981 10979 10979 10978 10978
10859 10871 10882 10895 10905 10920 10931 10941 10949 10956 10962 10967 10975 10980 10983 10989 10991 10994 10994 10994 10994 10996 10997 10998 10997 10996 10994 10992 10991 10990 10990 10989 10988 10988 10989 10987 10987 10986 10984 10985 10985 10984 10983 10981 10982 10980 10978 10978 10980
10842 10855 10869 10883 10895 10908 10921 10931 10941 10948 10954 10962 10970 10978 10981 10985 10989 10992 10995 10996 10995 10997 10999 11000 11001 11000 10999 10998 10997 10996 10996 10996 10996 10995 10994 10994 10994 10993 10992 10992 10992 10990 10988 10985 10983 10982 10981 10978 10979
10826 10844 10859 10871 10882 10895 10912 10922 10931 10941 10948 10956 10965 10973 10978 10981 10984 10989 10992 10995 10997 10997 10998 11000 11002 11002 11002 11003 11003 11002 11002 11002 11001 11000 11000 11000 11000 10999 10998 10998 10997 10995 10994 10993 10992 10990 10987 10985 10984
10812 10830 10844 10859 10869 10886 10903 10914 10926 10933 10940 10950 10958 10966 10970 10974 10979 10984 10988 10992 10995 10997 10998 11000 11002 11003 11003 11005 11006 11006 11006 11006 11006 11005 11004 11004 11005 11004 11003 11002 11002 11001 10999 10998 10997 10995 10993 10992 10992
10798 10815 10831 10844 10857 10877 10895 10902 10913 10922 10931 10942 10949 10955 10963 10970 10976 10981 10984 10987 10991 10995 10997 10999 11000 11002 11004 11005 11007 11008 11008 11008 11008 11008 11008 11008 11007 11007 11007 11006 11004 11003 11002 11001 11000 10999 10998 10998 10997
10794 10808 10825 10837 10848 10868 10880 10890 10902 10914 10922 10932 10940 10947 10955 10963 10968 10974 10979 10982 10987 10990 10994 10996 10998 11000 11002 11004 11005 11006 11008 11008 11008 11007 11008 11010 11010 11009 11009 11009 11007 11005 11004 11003 11003 11003 11004 11002 11000
10787 10802 10815 10825 10838 10852 10864 10879 10891 10903 10911 10923 10930 10938 10945 10954 10960 10966 10973 10977 10980 10984 10988 10992 10995 10997 10999 11002 11003 11005 11006 11007 11008 11008 11008 11008 11010 11010 11010 11010 11009 11008 11007 11007 11006 11006 11005 11004 11003